     2              OBSERVATION DATA    GPS                 RINEX VERSION / TYPE
TRRINEXO-V2.3.1-LH UCLA/SCEC 28-FEB-1994                    PGM / RUN BY / DATE
                                                            COMMENT
Original Marker Name: 6006                                  COMMENT
Campaign Name: Northridge 1994                              COMMENT
4-Character Station Name: 6006                              COMMENT
6-Character Antenna Code: TRMSST                            COMMENT
Vertical Measurement Point: BGP                             COMMENT
Vertical Offset to Rinex Ref. Point: 0.0597                 COMMENT
Radial Measurement Point: NGP                               COMMENT
Radial Offset to Rinex Ref. Point: 0.2334                   COMMENT
Antenna Height from Field Measurement: 2.1080 m             COMMENT
Power failure at 17:37 and at 18:16.                        COMMENT
Original XYZ: -2520714.4097 -4663106.6923 3535136.1620      COMMENT
New XYZ position is based on association with SCEC monument COMMENT
E1C7W0S1+0011. Position of that monument is believed to be  COMMENT
valid to within 1 m horizontally; vertical accuracy         COMMENT
should be no worse than 3-times this value.                 COMMENT
                                                            COMMENT
Revised Rinex header created by UCSD GPS archive for        COMMENT
GSAC on 06-Apr-1999 (1999:096) 02:00:51 GMT                 COMMENT
For assistance contact dagnew@ucsd.edu or hjohnson@ucsd.edu COMMENT
                                                            COMMENT
TOR E3 ECC 7 5-78                                           MARKER NAME
G. STEELE LOS ANGELES COUNTY                                OBSERVER / AGENCY
1963 TRIMBLE 4000 SST 4.81                                  REC # / TYPE / VERS
2755 TR 4000SST L1/L2 GEO                                   ANT # / TYPE
 -2520783.0000 -4663159.0000  3535177.0000                  APPROX POSITION XYZ
        2.0353        0.0000        0.0000                  ANTENNA: DELTA H/E/N
     1     2     0                                          WAVELENGTH FACT L1/2
     3    C1    L1    L2                                    # / TYPES OF OBSERV
    30                                                      INTERVAL
  1994     2    16    17    38    0.000000                  TIME OF FIRST OBS
  1994     2    16    18    13    0.000000                  TIME OF LAST OBS
     0                                                      # OF SATELLITES
                                                            END OF HEADER
 94  2 16 17 38  0.0000000  0  5 14 15 22 25 29
  20559385.852          -0.34917
  22577266.008          -0.83815
  22182585.516          -0.56316
  22275938.938          -0.26817
  22032820.633          -0.44817
 94  2 16 17 38 30.0000000  0  5 14 15 22 25 29
  20555649.664      -19633.352 7     -7619.73517
  22598605.750      112148.563 5        -0.03513
  22173958.320      -45315.760 6    -17627.99115
  22295520.531      102871.437 7        -0.28416
  22028123.039      -24673.837 6     -9614.59716
 94  2 16 17 39  0.0000000  0  5 14 15 22 25 29
  20551975.734      -38949.024 7    -22670.910 7
  22619980.289      224464.673 5     87518.930 3
  22165396.773      -90328.944 5    -52703.191 5
  22315122.242      205899.953 7     80281.611 6
  22023425.734      -49352.298 7    -28844.574 7
 94  2 16 17 39 30.0000000  0  5 14 15 22 25 29
  20548361.852      -57934.802 7    -37465.031 7
  22641386.586      336948.350 5    175168.515 4
  22156890.570     -135025.830 5    -87531.936 5
  22334755.055      309057.575 7    160664.116 7
  22018726.492      -74035.116 7    -48077.955 6
 94  2 16 17 40  0.0000000  0  5 14 15 22 25 29
  20544813.672      -76582.857 7    -51995.989 7
  22662828.805      449602.324 5    262950.789 3
  22148444.820     -179393.946 5   -122104.442 5
  22354405.656      412321.859 7    241129.741 7
  22014031.211      -98713.113 7    -67307.563 6
 94  2 16 17 40 30.0000000  0  5 14 15 22 25 29
  20541334.906      -94868.228 7    -66244.345 7
  22684293.828      562424.575 5    350864.164 4
  22140066.313     -223427.713 5   -156416.494 4
  22374077.891      515695.062 7    321680.231 7
  22009340.539     -123380.917 7    -86529.237 6
 94  2 16 17 41  0.0000000  0  5 14 15 22 25 29
  20537925.836     -112780.617 7    -80202.048 7
  22705798.063      675412.969 5    438907.003 4
  22131758.148     -267122.659 6   -190464.493 5
  22393768.094      619182.671 7    402319.857 6
  22004649.211     -148031.530 7   -105737.517 6
 94  2 16 17 41 30.0000000  0  5 14 15 22 25 29
  20534588.133     -130322.613 8    -93871.149 7
  22727325.664      788562.553 5    527075.469 3
  22123503.078     -310496.681 5   -224262.444 5
  22413484.117      722788.845 7    483051.877 6
  21999959.938     -172663.347 7   -124931.131 6
 94  2 16 17 42  0.0000000  0  5 14 15 22 25 29
  20531320.375     -147498.291 7   -107254.809 7
  22748878.672      901874.861 5    615370.717 4
  22115308.945     -353553.559 5   -257813.290 5
  22433227.781      826542.838 7    563899.088 6
  21995281.570     -197258.519 7   -144096.208 6
 94  2 16 17 42 30.0000000  0  5 14 15 22 25 29
  20528118.109     -164311.305 7   -120355.864 7
  22770481.164     1015347.500 5    703790.881 4
  22107174.180     -396296.044 5   -291119.111 5
  22453004.281      930458.334 7    644872.132 6
  21990608.008     -221806.917 6   -163224.847 6
 94  2 16 17 43  0.0000000  0  5 14 15 22 25 29
  20524986.250     -180781.416 8   -133189.721 7
  22792110.711     1128977.344 5    792333.573 2
  22099100.227     -438712.823 5   -324171.146 5
  22472809.359     1034531.135 7    725967.769 6
  21985950.609     -246295.647 7   -182306.994 7
 94  2 16 17 43 30.0000000  0  5 14 15 22 25 29
  20521919.281     -196896.006 8   -145746.539 7
  22813754.359     1242763.814 5    880998.269 2
  22091094.078     -480791.207 5   -356959.483 5
  22492639.875     1138763.375 7    807187.618 6
  21981305.789     -270712.931 7   -201333.457 7
 94  2 16 17 44  0.0000000  0  5 14 15 22 25 29
  20518924.773     -212647.565 7   -158020.492 7
  22835445.188     1356704.046 4    969782.819 2
  22083156.211     -522527.966 5   -389481.615 4
  22512507.609     1243166.693 7    888540.789 6
  21976667.000     -295063.205 7   -220307.707 7
 94  2 16 17 44 30.0000000  0  5 14 15 22 25 29
  20515994.391     -228025.366 7   -170003.208 8
  22857149.383     1470794.248 3   1058684.215 2
  22075282.250     -563915.682 6   -421731.803 5
  22532403.766     1347717.752 7    970009.089 6
  21972044.797     -319360.767 7   -239240.893 7
 94  2 16 17 45  0.0000000  0  5 14 15 22 25 29
  20513141.516     -243017.301 7   -181685.241 8
  22878888.773     1585030.259 3   1147699.231 1
  22067472.016     -604946.475 6   -453703.816 5
  22552325.766     1452406.461 7   1051584.645 6
  21967426.477     -343622.892 7   -258146.464 7
 94  2 16 17 45 30.0000000  0  5 14 15 22 25 29
  20510366.688     -257606.749 7   -193053.658 8
  22900647.828     1699414.302 3   1236829.593 1
  22059729.586     -645630.353 6   -485405.538 5
  22572274.359     1557232.997 6   1133267.595 6
  21962814.375     -367862.044 7   -277034.112 6
 94  2 16 17 46  0.0000000  0  5 14 15 22 25 29
  20507669.602     -271776.346 7   -204094.908 8
  22922463.336     1813967.783 3   1326091.954 1
  22052047.039     -685953.108 5   -516825.820 5
  22592250.406     1662204.323 7   1215063.378 6
  21958211.875     -392059.432 7   -295889.195 6
 94  2 16 17 46 30.0000000  0  5 14 15 22 25 29
  20505069.445     -285448.972 7   -214748.910 8
  22944304.984     1928759.872 3   1415540.285 1
  22044466.820     -725837.435 5   -547904.505 5
  22612263.297     1767369.847 7   1297010.480 6
  21953632.797     -416139.700 7   -314653.035 6
 94  2 16 17 47  0.0000000  0  6 14 15 22 25 29 18
  20502545.633     -298705.004 8   -225078.274 7
  22966170.063     2043703.785 2   1505106.918 1
  22036947.469     -765370.578 5   -578709.538 5
  22632293.977     1872658.678 6   1379053.656 6
  21949056.875     -440180.310 7   -333385.967 6
  24278700.734      -55343.901 1
 94  2 16 17 47 30.0000000  0  5 14 15 22 25 29
  20500080.414     -311654.314 7   -235168.652 7
  22988056.320     2158684.056 3   1594701.878 1
  22029469.047     -804664.556 5   -609328.187 5
  22652334.953     1977956.570 7   1461103.882 6
  21944469.859     -464281.903 7   -352166.420 7
 94  2 16 17 48  0.0000000  0  5 14 15 22 25 29
  20497654.250     -324408.461 7   -245106.940 7
  23009910.477     2273583.427 3   1684233.791 1
  22022008.719     -843814.068 5   -639834.273 5
  22672356.094     2083157.678 7   1543078.672 6
  21939849.047     -488549.458 7   -371076.184 7
 94  2 16 17 48 30.0000000  0  5 14 15 22 25 29
  20495278.273     -336888.771 7   -254831.856 8
  23031784.797     2388471.149 3   1773756.608 1
  22014604.039     -882727.337 5   -670156.256 5
  22692373.563     2188346.097 7   1625043.582 6
  21935215.430     -512912.963 7   -390060.722 7
 94  2 16 17 49  0.0000000  0  5 14 15 22 25 29
  20492959.414     -349071.486 7   -264324.885 7
  23053643.250     2503374.891 3   1863291.924 1
  22007255.227     -921365.008 6   -700263.526 6
  22712391.867     2293559.280 6   1707027.814 6
  21930565.734     -537341.503 7   -409095.935 6
 94  2 16 17 49 30.0000000  0  5 14 15 22 25 29
  20490695.734     -360970.327 7   -273596.699 7
  23075509.133     2618281.082 4   1952829.150 1
  21999957.539     -959728.437 6   -730157.078 5
  22732417.523     2398787.149 6   1789023.496 6
  21925904.797     -561845.548 7   -428189.979 6
 94  2 16 17 50  0.0000000  0  5 14 15 22 25 29
  20488483.594     -372596.588 7   -282656.128 7
  23097377.828     2733181.877 3   2042362.119 1
  21992712.289     -997812.587 6   -759833.027 5
  22752445.523     2504034.266 7   1871034.180 6
  21921226.867     -586429.804 7   -447346.538 6
 94  2 16 17 50 30.0000000  0  5 14 15 22 25 29
  20486320.023     -383951.512 7   -291504.124 7
  23119239.438     2848073.153 4   2131887.754 1
  21985519.055    -1035615.481 6   -789289.801 5
  22772478.289     2609292.577 7   1953053.558 6
  21916534.273     -611088.065 7   -466560.747 6
 94  2 16 17 51  0.0000000  0  5 14 15 22 25 29
  20484212.297     -395042.778 7   -300146.671 7
  23141098.992     2962953.609 3   2221404.944 1
  21978378.367    -1073148.274 6   -818536.121 5
  22792505.227     2714554.827 6   2035076.014 6
  21911830.070     -635808.521 7   -485823.423 6
 94  2 16 17 51 30.0000000  0  5 14 15 22 25 29
  20482146.797     -405878.244 7   -308589.892 7
  23162962.086     3077817.728 4   2310909.382 1
  21971284.352    -1110407.419 6   -847569.197 6
  22812534.625     2819813.450 6   2117095.637 6
  21907112.445     -660592.833 7   -505135.862 6
 94  2 16 17 52  0.0000000  0  6 14 15 22 25 29 18
  20480140.727     -416456.459 7   -316832.664 7
  23184807.734     3192664.569 4   2400400.380 1
  21964246.125    -1147396.118 6   -876391.540 6
  22832560.891     2925048.828 6   2199097.157 6
  21902386.242     -685427.154 7   -524487.274 6
  24171685.258      -28481.70814
 94  2 16 17 52 30.0000000  0  6 14 15 22 25 29 18
  20478175.977     -426763.122 7   -324863.825 7
  23206666.578     3307499.971 4   2489882.463 1
  21957256.930    -1184111.687 6   -905001.061 6
  22852582.313     3030246.990 6   2281069.660 6
  21897651.578     -710310.528 7   -543876.916 7
  24160833.070      -85555.325 3
 94  2 16 17 53  0.0000000  0  6 14 15 22 25 29 18
  20476266.813     -436794.169 7   -332680.230 7
  23228516.109     3422325.244 4   2579356.600 1
  21950328.898    -1220554.710 6   -933398.193 6
  22872590.469     3135403.561 6   2363009.764 6
  21892906.492     -735255.937 7   -563314.895 7
  24149943.688     -142765.408 3    -22302.42511
 94  2 16 17 53 30.0000000  0  6 14 15 22 25 29 18
  20474419.000     -446519.941 8   -340258.754 7
  23250354.695     3537144.523 2   2668826.058 1
  21943445.594    -1256706.613 6   -961568.493 6
  22892594.031     3240524.646 6   2444922.239 6
  21888145.422     -760258.866 7   -582797.691 7
  24139027.891     -200114.281 3    -66989.870 1
 94  2 16 17 54  0.0000000  0  6 14 15 22 25 29 18
  20472628.758     -455914.602 7   -347579.271 7
  23272219.414     3651960.368 3   2758292.924 1
  21936626.773    -1292559.501 6   -989505.800 6
  22912595.945     3345621.335 7   2526815.689 6
  21883377.375     -785314.489 7   -602321.558 7
  24128085.633     -257593.308 3   -111778.712 1
 94  2 16 17 54 30.0000000  0  6 14 15 22 25 29 18
  20470906.938     -464964.860 8   -354631.431 7
  23294061.422     3766775.635 2   2847759.239 1
  21929858.164    -1328104.016 6  -1017202.826 6
  22932595.555     3450718.187 7   2608709.268 6
  21878597.211     -810432.305 7   -621893.880 7
  24117123.164     -315187.876 3   -156657.577 1
 94  2 16 17 55  0.0000000  0  6 14 15 22 25 29 18
  20469251.656     -473668.282 8   -361413.324 7
  23315929.867     3881589.147 3   2937224.194 1
  21923153.266    -1363330.134 6  -1044651.745 6
  22952598.953     3555832.295 7   2690616.285 6
  21873809.953     -835601.278 7   -641506.072 6
  24106139.641     -372891.657 3   -201621.521 1
 94  2 16 17 55 30.0000000  0  6 14 15 22 25 29 18
  20467662.914     -482010.199 7   -367913.530 7
  23337754.844     3996399.691 2
  21916509.844    -1398239.171 6  -1071853.573 6
  22972602.766     3660973.719 7   2772544.578 6
  21869013.602     -860811.509 7   -661150.418 6
  24095132.336     -430707.620 3   -246672.908 1
 94  2 16 17 56  0.0000000  0  6 14 15 22 25 29 18
  20466143.625     -489996.602 8   -374136.713 7
  23359608.156     4111206.167 2        -0.09811
  21909930.641    -1432830.356 6  -1098807.730 6
  22992616.820     3766149.004 6   2854499.270 6
  21864204.711     -886071.734 7   -680833.710 6
  24084116.406     -488623.769 2   -291802.385 1
 94  2 16 17 56 30.0000000  0  5 14 22 25 29 18
  20464692.328     -497632.392 7   -380086.692 7
  21903405.898    -1467103.920 6  -1125514.371 6
  23012639.406     3871346.148 6   2936470.974 6
  21859388.898     -911387.713 7   -700560.463 6
  24073077.148     -546650.348 3   -337017.898 1
 94  2 16 17 57  0.0000000  0  5 14 22 25 29 18
  20463305.883     -504911.713 8   -385758.887 7
  21896953.320    -1501041.448 6  -1151959.195 6
  23032655.523     3976548.221 6   3018446.524 6
  21854559.500     -936757.899 7   -720329.441 7
  24062033.414     -604792.122 3   -382323.183 1
 94  2 16 17 57 30.0000000  0  5 14 22 25 29 18
  20461987.742     -511832.999 8   -391152.108 7
  21890557.938    -1534640.104 6  -1178139.952 5
  23052674.727     4081747.122 6   3100419.601 6
  21849721.328     -962193.239 7   -740149.188 7
  24050926.828     -663050.588 3   -427719.282 2
 94  2 16 17 58  0.0000000  0  6 14 15 22 25 29 18
  20460737.516     -518407.506 8   -396275.121 7
  23446972.039       57375.27313
  21884227.445    -1567870.246 6  -1204033.542 5
  23072691.938     4186939.796 6   3182387.849 6
  21844865.977     -987687.776 7   -760015.064 7
  24039834.109     -721414.959 3   -473197.930 1
 94  2 16 17 58 30.0000000  0  6 14 15 22 25 29 18
  20459552.500     -524641.944 8   -401133.140 7
  23468803.602      172114.554 3
  21877979.867    -1600730.852 6  -1229639.180 5
  23092707.445     4292115.245 6   3264342.653 6
  21840002.188    -1013227.177 7   -779915.906 7
  24028681.102     -779891.889 2   -518764.226 1
 94  2 16 17 59  0.0000000  0  6 14 15 22 25 29 18
  20458427.961     -530535.841 7   -405725.802 7
  23490639.422      286827.738 4        -0.28511
  21871792.742    -1633233.080 6  -1254965.571 5
  23112719.805     4397279.502 6   3346288.728 6
  21835143.047    -1038803.044 7   -799845.161 7
  24017543.180     -838476.398 3   -564414.423 2
 94  2 16 17 59 30.0000000  0  6 14 15 22 25 29 18
  20457371.320     -536092.921 7   -410056.003 8
  23512472.492      401518.465 4     89369.018 1
  21865676.297    -1665390.983 6  -1280023.636 5
  23132734.320     4502440.682 6   3428232.424 6
  21830271.367    -1064405.901 7   -819795.432 7
  24006384.703     -897169.778 3   -610149.464 3
 94  2 16 18  0  0.0000000  0  6 14 15 22 25 29 18
  20456378.242     -541311.946 7   -414122.795 7
  23534291.773      516181.263 3    178716.579 1
  21859623.422    -1697215.908 6  -1304822.251 5
  23152738.641     4607583.677 6   3510161.942 6
  21825395.711    -1090027.732 7   -839760.491 7
  23995182.117     -955991.484 4   -655984.466 4
 94  2 16 18  0 30.0000000  0  6 14 15 22 25 29 18
  20455451.500     -546175.282 7   -417912.426 7
  23556096.172      630817.570 3    268043.555 1
  21853626.109    -1728720.919 6  -1329371.592 4
  23172742.289     4712709.316 6   3592077.942 6
  21820517.109    -1115653.961 7   -859728.977 7
  23983968.008    -1014944.554 4   -701921.857 2
 94  2 16 18  1  0.0000000  0  5 14 22 25 29 18
  20454597.813     -550678.843 8   -421421.709 7
  21847692.617    -1759903.481 6  -1353669.657 5
  23192743.773     4817815.105 6   3673978.482 6
  21815634.914    -1141300.455 7   -879713.259 7
  23972720.797    -1074030.188 4   -747962.612 4
 94  2 16 18  1 30.0000000  0  5 14 22 25 29 18
  20453806.227     -554829.801 8   -424656.227 7
  21841819.406    -1790748.954 6  -1377705.062 5
  23212737.320     4922891.813 6   3755856.355 6
  21810752.648    -1166971.636 7   -899716.777 7
  23961459.375    -1133251.122 4   -794108.774 3
 94  2 16 18  2  0.0000000  0  5 14 22 25 29 18
  20453089.281     -558607.133 8   -427599.614 7
  21836023.203    -1821237.158 6  -1401462.056 5
  23232737.516     5027959.160 6   3837726.910 6
  21805864.492    -1192654.748 7   -919729.592 6
  23950165.781    -1192575.518 5   -840335.580 3
 94  2 16 18  2 30.0000000  0  5 14 22 25 29 18
  20452438.555     -562009.514 7   -430250.840 7
  21830288.711    -1851358.626 6  -1424933.301 5
  23252731.594     5133040.756 6   3919608.579 6
  21800974.727    -1218360.583 7   -939760.108 6
  23938860.922    -1251984.095 5   -886627.946 2
 94  2 16 18  3  0.0000000  0  5 14 22 25 29 18
  20451864.914     -565033.679 7   -432607.348 7
  21824626.617    -1881092.879 6  -1448102.833 5
  23272731.953     5238153.254 6   4001514.328 6
  21796076.820    -1244094.983 7   -959812.897 6
  23927546.266    -1311466.670 5   -932977.982 5
 94  2 16 18  3 30.0000000  0  5 14 22 25 29 18
  20451366.063     -567670.882 8   -434662.331 7
  21819046.180    -1910436.255 6  -1470967.758 5
  23292737.500     5343290.929 6   4083439.716 6
  21791175.484    -1269849.982 7   -979881.724 7
  23916208.906    -1371018.715 4   -979382.182 3
 94  2 16 18  4  0.0000000  0  5 14 22 25 29 18
  20450935.445     -569917.431 7   -436412.907 7
  21813540.469    -1939386.128 6  -1493526.071 5
  23312752.750     5448451.489 6   4165382.942 6
  21786273.375    -1295622.037 7   -999963.832 7
  23904865.578    -1430644.775 4  -1025844.053 4
 94  2 16 18  4 30.0000000  0  5 14 22 25 29 18
  20450583.305     -571770.693 7   -437857.014 7
  21808102.188    -1967933.506 6  -1515770.755 5
  23332765.641     5553613.771 6   4247327.492 6
  21781364.359    -1321404.325 7  -1020053.918 7
  23893499.438    -1490367.486 5  -1072381.209 3
 94  2 16 18  5  0.0000000  0  5 14 22 25 29 18
  20450309.367     -573224.560 7   -438989.909 7
  21802747.898    -1996075.778 6  -1537699.757 6
  23352775.422     5658750.310 6   4329251.938 6
  21776456.078    -1347192.025 7  -1040148.239 7
  23882118.195    -1550187.090 5  -1118993.851 1
 94  2 16 18  5 30.0000000  0  5 14 22 25 29 18
  20450110.547     -574261.023 8   -439797.553 7
  21797466.977    -2023811.583 6  -1559312.045 6
  23372764.898     5763851.674 6   4411149.017 5
  21771549.570    -1372979.806 7  -1060242.617 7
  23870711.281    -1610094.237 5  -1165674.697 2
 94  2 16 18  6  0.0000000  0  5 14 22 25 29 18
  20449991.547     -574873.797 7   -440275.043 7
  21792267.102    -2051136.309 6  -1580604.001 6
  23392760.914     5868923.252 6   4493022.891 5
  21766646.711    -1398768.014 7  -1080337.331 7
  23859292.539    -1670089.825 5  -1212424.469 1
 94  2 16 18  6 30.0000000  0  5 14 22 25 29 18
  20449955.484     -575062.811 7   -440422.340 7
  21787145.953    -2078062.380 6  -1601585.324 6
  23412755.219     5973979.370 6   4574884.700 5
  21761729.000    -1424573.545 7  -1100445.542 7
  23847864.469    -1730163.911 5  -1259235.408 2
 94  2 16 18  7  0.0000000  0  5 14 22 25 29 18
  20449996.602     -574841.830 7   -440250.151 7
  21782096.445    -2104591.108 7  -1622257.032 6
  23432747.188     6079029.568 6   4656741.857 5
  21756813.930    -1450412.120 7  -1120579.492 7
  23836418.820    -1790303.680 5  -1306097.534 3
 94  2 16 18  7 30.0000000  0  5 14 22 25 29 18
  20450122.570     -574206.343 7   -439754.971 7
  21777127.586    -2130709.118 7  -1642608.694 6
  23452741.648     6184095.592 6   4738611.367 5
  21751898.070    -1476251.509 7  -1140714.074 7
  23824971.539    -1850498.406 5  -1353002.516 3
 94  2 16 18  8  0.0000000  0  5 14 22 25 29 18
  20450314.414     -573182.284 7   -438957.019 7
  21772233.016    -2156418.517 6  -1662641.967 6
  23472733.383     6289184.367 6   4820498.617 5
  21746982.906    -1502081.243 7  -1160841.143 7
  23813507.000    -1910756.937 5  -1399957.184 3
 94  2 16 18  8 30.0000000  0  5 14 22 25 29 18
  20450577.328     -571788.306 7   -437870.808 7
  21767416.945    -2181730.215 7  -1682365.346 7
  23492735.578     6394283.478 6   4902393.931 5
  21742070.484    -1527895.802 7  -1180956.369 7
  23802016.898    -1971081.108 5  -1446963.009 2
 94  2 16 18  9  0.0000000  0  5 14 22 25 29 18
  20450918.992     -570007.621 7   -436483.265 7
  21762679.813    -2206621.092 7  -1701760.807 6
  23512734.609     6499364.817 6   4984275.383 5
  21737168.188    -1553665.288 7  -1201036.479 7
  23790534.406    -2031472.127 5  -1494020.913 3
 94  2 16 18  9 30.0000000  0  5 14 22 25 29 18
  20451336.313     -567821.632 7   -434779.886 7
  21758026.141    -2231091.856 7  -1720828.907 7
  23532726.781     6604422.839 6   5066138.658 6
  21732271.172    -1579381.225 7  -1221074.875 7
  23779020.180    -2091934.367 5  -1541134.281 4
 94  2 16 18 10  0.0000000  0  5 14 22 25 29 18
  20451832.375     -565213.710 8   -432747.749 7
  21753451.398    -2255131.223 7  -1739560.859 7
  23552717.156     6709465.260 6   5147989.790 6
  21727388.570    -1605059.793 7  -1241084.153 7
  23767507.820    -2152463.466 4  -1588299.828 3
 94  2 16 18 10 30.0000000  0  5 14 22 25 29 18
  20452411.453     -562160.933 7   -430368.963 7
  21748959.070    -2278734.894 7  -1757953.313 7
  23572702.445     6814483.209 6   5229821.835 5
  21722508.656    -1630702.843 7  -1261065.739 7
  23755969.125    -2213056.748 4  -1635515.356 3
 94  2 16 18 11  0.0010000  0  5 14 22 25 29 18
  20453091.653     -558601.703 7   -427595.544 7
  21744565.724    -2301835.616 7  -1775953.863 7
  23592695.075     6919532.908 6   5311678.633 6
  21717640.919    -1656271.229 7  -1280989.140 7
  23744441.067    -2273664.710 4  -1682742.327 2
 94  2 16 18 11 30.0010000  0  5 14 22 25 29 18
  20453853.888     -554585.135 7   -424465.749 7
  21740256.513    -2324467.036 7  -1793588.721 7
  23612681.239     7024593.691 6   5393544.053 6
  21712779.138    -1681816.900 7  -1300894.845 7
  23732886.567    -2334316.798 3  -1730003.677 2
 94  2 16 18 12  0.0010000  0  5 14 22 25 29 18
  20454697.122     -550149.686 7   -421009.561 7
  21736038.411    -2346649.079 7  -1810873.419 7
  23632670.942     7129647.519 6   5475404.070 5
  21707917.755    -1707365.484 7  -1320802.827 7
  23721341.997    -2395041.282 4  -1777321.420 1
 94  2 16 18 12 30.0010000  0  5 14 22 25 29 18
  20455613.458     -545339.420 7   -417261.305 7
  21731894.927    -2368409.119 7  -1827829.276 7
  23652658.364     7234657.062 6   5557229.562 5
  21703051.224    -1732946.424 7  -1340736.028 7
  23709771.380    -2455870.454 5  -1824720.714 2
